Chariton, IA

1:22 PM CST on February 23, 2018 (GMT -0600)
Chariton Municipal

Weather History for KCNC - January, 2012

Change the Weather History Date:

Wednesday, January 4, 2012

  Actual Average Record
Temperature  
Mean Temperature 39 °F -  
Max Temperature 46 °F 31 °F 57 °F (1997)
Min Temperature 32 °F 10 °F -19 °F (1959)
Degree Days  
Heating Degree Days 26    
Moisture  
Dew Point 26 °F    
Average Humidity 63    
Maximum Humidity 80    
Minimum Humidity 43    
Precipitation  
Precipitation 0.00 in - - ()
Sea Level Pressure  
Sea Level Pressure 30.10 in    
Wind  
Wind Speed 11 mph (West)    
Max Wind Speed 17 mph    
Max Gust Speed 25 mph    
Visibility 10 miles    
Events      
Averages and records for this station are not official NWS values.
T = Trace of Precipitation, MM = Missing Value Source: NWS Daily Summary

Daily Weather History Graph

Daily Weather History Graph

Search for Another Location

Airport or City:

Trip Planner

Search our weather history database for the weather conditions in past years. The results will help you decide how hot, cold, wet, or windy it might be!

Date:

Astronomy

Jan. 04, 2012 Rise Set
Actual Time 7:38 AM CST 4:58 PM CST
Civil Twilight 7:07 AM CST 5:29 PM CST
Nautical Twilight 6:33 AM CST 6:03 PM CST
Astronomical Twilight 5:59 AM CST 6:36 PM CST
Moon 1:21 PM CST (1/4) 3:27 AM CST (1/4)
Length of Visible Light 10h 21m
Length of Day
9h 19m
Waxing Gibbous, 81% of the Moon is Illuminated
Jan 4
Waxing Gibbous
Jan 9
Full
Jan 16
Last Quarter
Jan 23
New
Jan 30
First Quarter

Hourly Weather History & Observations

Time (CST) Temp. Windchill Dew Point Humidity Pressure Visibility Wind Dir Wind Speed Gust Speed Precip Events Conditions
12:15 AM 37.4 °F 30.8 °F 21.2 °F 52% 29.96 in 10.0 mi WSW 9.2 mph - N/A   Clear
12:35 AM 37.4 °F 30.8 °F 23.0 °F 56% 29.96 in 10.0 mi WSW 9.2 mph - N/A   Clear
12:55 AM 37.4 °F 32.1 °F 23.0 °F 56% 29.96 in 10.0 mi WSW 6.9 mph - N/A   Clear
1:15 AM 35.6 °F 29.9 °F 23.0 °F 60% 29.96 in 10.0 mi WSW 6.9 mph - N/A   Clear
1:35 AM 35.6 °F 28.6 °F 24.8 °F 65% 29.96 in 10.0 mi West 9.2 mph - N/A   Clear
1:55 AM 35.6 °F 27.5 °F 24.8 °F 65% 29.96 in 10.0 mi West 11.5 mph - N/A   Clear
2:15 AM 35.6 °F 27.1 °F 24.8 °F 65% 29.97 in 10.0 mi West 12.7 mph - N/A   Clear
2:35 AM 35.6 °F 27.1 °F 24.8 °F 65% 29.98 in 10.0 mi West 12.7 mph - N/A   Clear
2:55 AM 35.6 °F 27.1 °F 24.8 °F 65% 29.98 in 10.0 mi WNW 12.7 mph - N/A   Clear
3:15 AM 37.4 °F 28.9 °F 24.8 °F 60% 29.99 in 10.0 mi WNW 13.8 mph - N/A   Clear
3:35 AM 37.4 °F 28.5 °F 26.6 °F 65% 29.99 in 10.0 mi NW 15.0 mph 21.9 mph N/A   Clear
3:55 AM 37.4 °F 27.8 °F 26.6 °F 65% 30.00 in 10.0 mi NW 17.3 mph - N/A   Clear
4:15 AM 37.4 °F 27.8 °F 26.6 °F 65% 30.01 in 10.0 mi NW 17.3 mph 25.3 mph N/A   Clear
4:35 AM 35.6 °F 27.1 °F 26.6 °F 70% 30.03 in 10.0 mi NW 12.7 mph 20.7 mph N/A   Clear
4:55 AM 35.6 °F 26.6 °F 26.6 °F 70% 30.03 in 10.0 mi NW 13.8 mph - N/A   Clear
5:15 AM 35.6 °F 26.6 °F 26.6 °F 70% 30.04 in 10.0 mi NW 13.8 mph 19.6 mph N/A   Clear
5:35 AM 33.8 °F 23.9 °F 26.6 °F 75% 30.06 in 10.0 mi NW 15.0 mph - N/A   Clear
5:55 AM 33.8 °F 24.8 °F 26.6 °F 75% 30.07 in 10.0 mi NW 12.7 mph 19.6 mph N/A   Clear
6:15 AM 33.8 °F 23.9 °F 26.6 °F 75% 30.08 in 10.0 mi NW 15.0 mph 20.7 mph N/A   Clear
6:35 AM 33.8 °F 23.9 °F 26.6 °F 75% 30.09 in 10.0 mi NNW 15.0 mph 23.0 mph N/A   Clear
6:55 AM 33.8 °F 24.3 °F 26.6 °F 75% 30.11 in 10.0 mi NNW 13.8 mph 18.4 mph N/A   Clear
7:15 AM 32.0 °F 22.1 °F 24.8 °F 75% 30.11 in 10.0 mi NW 13.8 mph 20.7 mph N/A   Clear
7:35 AM 32.0 °F 23.0 °F 24.8 °F 75% 30.11 in 10.0 mi NNW 11.5 mph - N/A   Clear
7:55 AM 32.0 °F 22.5 °F 24.8 °F 75% 30.12 in 10.0 mi NW 12.7 mph - N/A   Clear
8:15 AM 32.0 °F 23.0 °F 26.6 °F 80% 30.14 in 10.0 mi NW 11.5 mph - N/A   Clear
8:35 AM 32.0 °F 21.6 °F 26.6 °F 80% 30.15 in 10.0 mi NW 15.0 mph - N/A   Clear
9:15 AM 33.8 °F 23.9 °F 26.6 °F 75% 30.17 in 10.0 mi NW 15.0 mph 21.9 mph N/A   Clear
9:35 AM 35.6 °F 27.1 °F 26.6 °F 70% 30.18 in 10.0 mi NW 12.7 mph 18.4 mph N/A   Clear
10:15 AM 35.6 °F 27.1 °F 26.6 °F 70% 30.19 in 10.0 mi NNW 12.7 mph - N/A   Clear
10:35 AM 37.4 °F 28.9 °F 26.6 °F 65% 30.19 in 10.0 mi NW 13.8 mph - N/A   Clear
10:55 AM 39.2 °F 31.2 °F 26.6 °F 61% 30.19 in 10.0 mi NW 13.8 mph - N/A   Clear
11:15 AM 39.2 °F 31.6 °F 26.6 °F 61% 30.18 in 10.0 mi NW 12.7 mph - N/A   Clear
11:35 AM 41.0 °F 33.5 °F 26.6 °F 57% 30.18 in 10.0 mi NW 13.8 mph - N/A   Clear
11:55 AM 42.8 °F 35.8 °F 26.6 °F 53% 30.17 in 10.0 mi WNW 13.8 mph 18.4 mph N/A   Clear
12:15 PM 42.8 °F 37.5 °F 26.6 °F 53% 30.16 in 10.0 mi WNW 9.2 mph - N/A   Clear
12:35 PM 44.6 °F 38.1 °F 26.6 °F 49% 30.15 in 10.0 mi NW 13.8 mph - N/A   Clear
12:55 PM 44.6 °F 39.2 °F 26.6 °F 49% 30.14 in 10.0 mi WNW 10.4 mph 19.6 mph N/A   Clear
1:15 PM 44.6 °F 38.1 °F 26.6 °F 49% 30.14 in 10.0 mi WNW 13.8 mph - N/A   Clear
1:35 PM 44.6 °F 38.4 °F 26.6 °F 49% 30.14 in 10.0 mi WNW 12.7 mph - N/A   Clear
2:15 PM 46.4 °F 41.5 °F 26.6 °F 46% 30.13 in 10.0 mi West 10.4 mph - N/A   Clear
3:15 PM 46.4 °F 42.4 °F 24.8 °F 43% 30.15 in 10.0 mi WNW 8.1 mph - N/A   Clear
3:55 PM 44.6 °F 40.7 °F 28.4 °F 53% 30.17 in 10.0 mi West 6.9 mph - N/A   Clear
4:15 PM 44.6 °F 39.7 °F 28.4 °F 53% 30.17 in 10.0 mi West 9.2 mph - N/A   Clear
4:35 PM 42.8 °F 38.6 °F 28.4 °F 57% 30.17 in 10.0 mi WSW 6.9 mph - N/A   Clear
4:55 PM 41.0 °F 37.1 °F 26.6 °F 57% 30.16 in 10.0 mi WSW 5.8 mph - N/A   Clear
5:15 PM 39.2 °F 35.0 °F 26.6 °F 61% 30.16 in 10.0 mi SW 5.8 mph - N/A   Clear
5:35 PM 39.2 °F 35.9 °F 26.6 °F 61% 30.15 in 10.0 mi SW 4.6 mph - N/A   Clear
5:55 PM 39.2 °F 35.0 °F 24.8 °F 56% 30.15 in 10.0 mi SSW 5.8 mph - N/A   Clear
6:15 PM 37.4 °F 33.8 °F 24.8 °F 60% 30.15 in 10.0 mi SSW 4.6 mph - N/A   Clear
6:35 PM 37.4 °F 33.8 °F 24.8 °F 60% 30.16 in 10.0 mi SSW 4.6 mph - N/A   Clear
6:55 PM 35.6 °F 30.7 °F 24.8 °F 65% 30.16 in 10.0 mi SW 5.8 mph - N/A   Clear
7:15 PM 37.4 °F 32.1 °F 24.8 °F 60% 30.16 in 10.0 mi SW 6.9 mph - N/A   Clear
7:35 PM 37.4 °F 32.1 °F 24.8 °F 60% 30.16 in 10.0 mi SW 6.9 mph - N/A   Clear
7:55 PM 35.6 °F 30.7 °F 24.8 °F 65% 30.16 in 10.0 mi SW 5.8 mph - N/A   Clear
8:15 PM 35.6 °F 29.2 °F 24.8 °F 65% 30.14 in 10.0 mi SW 8.1 mph - N/A   Clear
8:35 PM 37.4 °F 32.1 °F 24.8 °F 60% 30.14 in 10.0 mi SW 6.9 mph - N/A   Clear
8:55 PM 37.4 °F 31.4 °F 24.8 °F 60% 30.14 in 10.0 mi SSW 8.1 mph - N/A   Clear
9:15 PM 37.4 °F 31.4 °F 24.8 °F 60% 30.13 in 10.0 mi SSW 8.1 mph - N/A   Clear
9:35 PM 37.4 °F 32.1 °F 24.8 °F 60% 30.12 in 10.0 mi SSW 6.9 mph - N/A   Clear
9:55 PM 39.2 °F 33.0 °F 23.0 °F 52% 30.11 in 10.0 mi SW 9.2 mph - N/A   Clear
10:15 PM 39.2 °F 32.5 °F 23.0 °F 52% 30.10 in 10.0 mi SW 10.4 mph - N/A   Clear
10:35 PM 39.2 °F 32.5 °F 23.0 °F 52% 30.10 in 10.0 mi SW 10.4 mph - N/A   Clear
10:55 PM 39.2 °F 32.5 °F 23.0 °F 52% 30.09 in 10.0 mi SW 10.4 mph - N/A   Clear
11:15 PM 39.2 °F 32.5 °F 23.0 °F 52% 30.08 in 10.0 mi SW 10.4 mph - N/A   Clear
11:35 PM 39.2 °F 33.0 °F 24.8 °F 56% 30.07 in 10.0 mi SW 9.2 mph - N/A   Clear
11:55 PM 39.2 °F 32.5 °F 24.8 °F 56% 30.07 in 10.0 mi SW 10.4 mph - N/A   Clear